,,,PA_Meas_PMT16A,,PR_Meas_QMR101_102,,RH_Meas_QMH101,,SR_Meas_QMS101,,TA_Meas_QMH101,,GenWind,,GenWind,
date,time,status,PA,status,PR,status,RH,status,SR,status,TA,status,DirAvg,status,SpdAvg,
2010-05-08, 00:00:05,VALID,1001.72,VALID,0,VALID,96.7342,VALID,0,VALID,24.5388,VALID,350,VALID,0.403516,
2010-05-08, 00:01:05,VALID,1001.71,VALID,0,VALID,96.7418,VALID,0.100563,VALID,24.5601,VALID,350,VALID,0.373437,
2010-05-08, 00:02:05,VALID,1001.65,VALID,0,VALID,96.7418,VALID,0,VALID,24.5601,VALID,350,VALID,0.308203,
2010-05-08, 00:03:05,VALID,1001.65,VALID,0,VALID,96.7418,VALID,0,VALID,24.5388,VALID,350,VALID,0.0417969,
2010-05-08, 00:04:05,VALID,1001.63,VALID,0,VALID,96.7647,VALID,0,VALID,24.5193,VALID,350,VALID,0,
2010-05-08, 00:05:05,VALID,1001.62,VALID,0,VALID,96.7723,VALID,0,VALID,24.4998,VALID,350,VALID,0.075,
2010-05-08, 00:06:05,VALID,1001.56,VALID,0,VALID,96.7571,VALID,0,VALID,24.4804,VALID,350,VALID,0.204688,
2010-05-08, 00:07:05,VALID,1001.53,VALID,0,VALID,96.7723,VALID,0,VALID,24.5017,VALID,350,VALID,0.15625,
2010-05-08, 00:08:05,VALID,1001.54,VALID,0,VALID,96.78,VALID,0,VALID,24.5017,VALID,350,VALID,0.288281,
2010-05-08, 00:09:05,VALID,1001.51,VALID,0,VALID,96.7647,VALID,0,VALID,24.5017,VALID,350,VALID,0.257422,
2010-05-08, 00:10:05,VALID,1001.47,VALID,0,VALID,96.7876,VALID,0,VALID,24.4822,VALID,350,VALID,0.282813,
2010-05-08, 00:11:05,VALID,1001.45,VALID,0,VALID,96.7876,VALID,0,VALID,24.4414,VALID,350,VALID,0.266016,
2010-05-08, 00:12:05,VALID,1001.43,VALID,0,VALID,96.8029,VALID,0,VALID,24.4609,VALID,350,VALID,0.195313,
2010-05-08, 00:13:05,VALID,1001.44,VALID,0,VALID,96.78,VALID,0,VALID,24.4414,VALID,350,VALID,0.330078,
2010-05-08, 00:14:05,VALID,1001.38,VALID,0,VALID,96.8029,VALID,0,VALID,24.4609,VALID,350,VALID,0.134375,
2010-05-08, 00:15:05,VALID,1001.39,VALID,0,VALID,96.8181,VALID,0,VALID,24.4433,VALID,350,VALID,0.222656,
2010-05-08, 00:16:05,VALID,1001.35,VALID,0,VALID,96.8105,VALID,0,VALID,24.422,VALID,350,VALID,0.2,
2010-05-08, 00:17:05,VALID,1001.32,VALID,0,VALID,96.8258,VALID,0,VALID,24.422,VALID,350,VALID,0.157422,
2010-05-08, 00:18:05,VALID,1001.33,VALID,0,VALID,96.8258,VALID,0,VALID,24.422,VALID,350,VALID,0.178516,
2010-05-08, 00:19:05,VALID,1001.32,VALID,0,VALID,96.8258,VALID,0,VALID,24.4433,VALID,350,VALID,0.139453,
2010-05-08, 00:20:05,VALID,1001.29,VALID,0,VALID,96.841,VALID,0,VALID,24.422,VALID,350,VALID,0,
2010-05-08, 00:21:05,VALID,1001.25,VALID,0,VALID,96.8181,VALID,0,VALID,24.4433,VALID,350,VALID,0,
2010-05-08, 00:22:05,VALID,1001.23,VALID,0,VALID,96.8486,VALID,0,VALID,24.4433,VALID,350,VALID,0.214453,
2010-05-08, 00:23:05,VALID,1001.23,VALID,0,VALID,96.841,VALID,0,VALID,24.4433,VALID,350,VALID,0.392969,
2010-05-08, 00:24:05,VALID,1001.2,VALID,0,VALID,96.841,VALID,0,VALID,24.4025,VALID,350,VALID,0.378516,
2010-05-08, 00:25:05,VALID,1001.15,VALID,0,VALID,96.8486,VALID,0,VALID,24.4025,VALID,350,VALID,0.476953,
2010-05-08, 00:26:05,VALID,1001.15,VALID,0,VALID,96.8486,VALID,0,VALID,24.383,VALID,350,VALID,0.517187,
2010-05-08, 00:27:05,VALID,1001.11,VALID,0,VALID,96.8258,VALID,0,VALID,24.383,VALID,350,VALID,0.382422,
2010-05-08, 00:28:05,VALID,1001.11,VALID,0,VALID,96.841,VALID,0,VALID,24.3849,VALID,350,VALID,0.405469,
2010-05-08, 00:29:05,VALID,1001.11,VALID,0,VALID,96.8486,VALID,0,VALID,24.3636,VALID,350,VALID,0.3875,
2010-05-08, 00:30:05,VALID,1001.07,VALID,0,VALID,96.841,VALID,0,VALID,24.3441,VALID,350,VALID,0.364453,
2010-05-08, 00:31:05,VALID,1001.09,VALID,0,VALID,96.841,VALID,0,VALID,24.3459,VALID,350,VALID,0.44375,
2010-05-08, 00:32:05,VALID,1001.05,VALID,0,VALID,96.8258,VALID,0,VALID,24.3246,VALID,350,VALID,0.322266,
2010-05-08, 00:33:05,VALID,1001.02,VALID,0,VALID,96.841,VALID,0,VALID,24.3265,VALID,350,VALID,0.355859,
2010-05-08, 00:34:05,VALID,1000.99,VALID,0,VALID,96.8181,VALID,0,VALID,24.3052,VALID,350,VALID,0.467969,
2010-05-08, 00:35:05,VALID,1000.97,VALID,0,VALID,96.8258,VALID,0,VALID,24.3265,VALID,350,VALID,0.551562,
2010-05-08, 00:36:05,VALID,1000.96,VALID,0,VALID,96.841,VALID,0,VALID,24.2857,VALID,350,VALID,0.614844,
2010-05-08, 00:37:05,VALID,1000.95,VALID,0,VALID,96.841,VALID,0,VALID,24.307,VALID,350,VALID,0.614062,
2010-05-08, 00:38:05,VALID,1000.94,VALID,0,VALID,96.8334,VALID,0,VALID,24.2662,VALID,350,VALID,0.571484,
2010-05-08, 00:39:05,VALID,1000.91,VALID,0,VALID,96.8563,VALID,0,VALID,24.2662,VALID,350,VALID,0.620313,
2010-05-08, 00:40:05,VALID,1000.9,VALID,0,VALID,96.8486,VALID,0,VALID,24.2875,VALID,350,VALID,0.595703,
2010-05-08, 00:41:05,VALID,1000.87,VALID,0,VALID,96.8563,VALID,0,VALID,24.2468,VALID,350,VALID,0.697266,
2010-05-08, 00:42:05,VALID,1000.86,VALID,0,VALID,96.8486,VALID,0,VALID,24.2662,VALID,350,VALID,0.618359,
2010-05-08, 00:43:05,VALID,1000.86,VALID,0,VALID,96.8715,VALID,0.100563,VALID,24.2662,VALID,350,VALID,0.610937,
2010-05-08, 00:44:05,VALID,1000.84,VALID,0,VALID,96.841,VALID,0,VALID,24.2662,VALID,350,VALID,0.605469,
2010-05-08, 00:45:05,VALID,1000.85,VALID,0,VALID,96.8715,VALID,0,VALID,24.2875,VALID,350,VALID,0.619531,
2010-05-08, 00:46:05,VALID,1000.85,VALID,0,VALID,96.8868,VALID,0,VALID,24.2857,VALID,350,VALID,0.661328,
2010-05-08, 00:47:05,VALID,1000.84,VALID,0,VALID,96.8944,VALID,0,VALID,24.3265,VALID,350,VALID,0.651953,
2010-05-08, 00:48:05,VALID,1000.87,VALID,0,VALID,96.902,VALID,0,VALID,24.3265,VALID,350,VALID,0.686328,
2010-05-08, 00:49:05,VALID,1000.83,VALID,0,VALID,96.9173,VALID,0,VALID,24.3246,VALID,350,VALID,0.726172,
2010-05-08, 00:50:05,VALID,1000.85,VALID,0,VALID,96.9326,VALID,0,VALID,24.3246,VALID,350,VALID,0.735156,
2010-05-08, 00:51:05,VALID,1000.82,VALID,0,VALID,96.9249,VALID,0,VALID,24.3459,VALID,350,VALID,0.739844,
2010-05-08, 00:52:05,VALID,1000.81,VALID,0,VALID,96.9402,VALID,0,VALID,24.3441,VALID,350,VALID,0.709766,
2010-05-08, 00:53:05,VALID,1000.78,VALID,0,VALID,96.9402,VALID,0,VALID,24.3849,VALID,350,VALID,0.648828,
2010-05-08, 00:54:05,VALID,1000.77,VALID,0,VALID,96.9249,VALID,0,VALID,24.383,VALID,350,VALID,0.567969,
2010-05-08, 00:55:05,VALID,1000.76,VALID,0,VALID,96.9326,VALID,0,VALID,24.4238,VALID,350,VALID,0.491016,
2010-05-08, 00:56:05,VALID,1000.73,VALID,0,VALID,96.9402,VALID,0,VALID,24.4238,VALID,350,VALID,0.333594,
2010-05-08, 00:57:05,VALID,1000.71,VALID,0,VALID,96.9707,VALID,0,VALID,24.4025,VALID,350,VALID,0.265234,
2010-05-08, 00:58:05,VALID,1000.72,VALID,0,VALID,96.9707,VALID,0,VALID,24.3849,VALID,350,VALID,0.391797,
2010-05-08, 00:59:05,VALID,1000.69,VALID,0,VALID,96.9707,VALID,0,VALID,24.383,VALID,350,VALID,0.257031,
2010-05-08, 01:00:05,VALID,1000.67,VALID,0,VALID,96.9783,VALID,0,VALID,24.4025,VALID,350,VALID,0.337109,
2010-05-08, 01:01:05,VALID,1000.69,VALID,0,VALID,96.9554,VALID,0,VALID,24.4025,VALID,350,VALID,0.434375,
2010-05-08, 01:02:05,VALID,1000.69,VALID,0,VALID,96.9707,VALID,0,VALID,24.4433,VALID,350,VALID,0.419922,
2010-05-08, 01:03:05,VALID,1000.72,VALID,0,VALID,96.9783,VALID,0,VALID,24.4628,VALID,350,VALID,0.399609,
2010-05-08, 01:04:05,VALID,1000.73,VALID,0,VALID,96.9707,VALID,0,VALID,24.4628,VALID,350,VALID,0.407031,
2010-05-08, 01:05:05,VALID,1000.72,VALID,0,VALID,96.9631,VALID,0.100563,VALID,24.422,VALID,350,VALID,0.320313,
2010-05-08, 01:06:05,VALID,1000.7,VALID,0,VALID,96.9554,VALID,0,VALID,24.4628,VALID,350,VALID,0.489453,
2010-05-08, 01:07:05,VALID,1000.7,VALID,0,VALID,96.9478,VALID,0,VALID,24.4998,VALID,350,VALID,0.63125,
2010-05-08, 01:08:05,VALID,1000.71,VALID,0,VALID,96.9326,VALID,0,VALID,24.5582,VALID,358,VALID,0.608594,
2010-05-08, 01:09:05,VALID,1000.71,VALID,0,VALID,96.9478,VALID,0,VALID,24.599,VALID,358,VALID,0.589063,
2010-05-08, 01:10:05,VALID,1000.7,VALID,0,VALID,96.986,VALID,0,VALID,24.5796,VALID,358,VALID,0.604297,
2010-05-08, 01:11:05,VALID,1000.7,VALID,0,VALID,97.0165,VALID,0,VALID,24.5388,VALID,358,VALID,0.448047,
2010-05-08, 01:12:05,VALID,1000.66,VALID,0,VALID,97.0088,VALID,0,VALID,24.5193,VALID,358,VALID,0.326953,
2010-05-08, 01:13:05,VALID,1000.66,VALID,0,VALID,96.986,VALID,0,VALID,24.5193,VALID,358,VALID,0.314453,
2010-05-08, 01:14:05,VALID,1000.64,VALID,0,VALID,96.9936,VALID,0,VALID,24.5388,VALID,358,VALID,0.217187,
2010-05-08, 01:15:05,VALID,1000.65,VALID,0,VALID,96.9707,VALID,0,VALID,24.5796,VALID,358,VALID,0.185547,
2010-05-08, 01:16:05,VALID,1000.6,VALID,0,VALID,96.9783,VALID,0,VALID,24.599,VALID,358,VALID,0.278906,
2010-05-08, 01:17:05,VALID,1000.59,VALID,0,VALID,96.9707,VALID,0,VALID,24.6185,VALID,358,VALID,0.155469,
2010-05-08, 01:18:05,VALID,1000.57,VALID,0,VALID,96.9631,VALID,0,VALID,24.6574,VALID,358,VALID,0.248828,
2010-05-08, 01:19:05,VALID,1000.55,VALID,0,VALID,96.986,VALID,0,VALID,24.6556,VALID,358,VALID,0,
2010-05-08, 01:20:05,VALID,1000.53,VALID,0,VALID,96.9554,VALID,0,VALID,24.6964,VALID,358,VALID,0,
2010-05-08, 01:21:05,VALID,1000.48,VALID,0,VALID,96.9707,VALID,0,VALID,24.7372,VALID,358,VALID,0,
2010-05-08, 01:22:05,VALID,1000.47,VALID,0,VALID,96.9707,VALID,0,VALID,24.7353,VALID,358,VALID,0,
2010-05-08, 01:23:05,VALID,1000.45,VALID,0,VALID,96.9631,VALID,0,VALID,24.7353,VALID,358,VALID,0,
2010-05-08, 01:24:05,VALID,1000.44,VALID,0,VALID,96.9783,VALID,0,VALID,24.714,VALID,358,VALID,0,
2010-05-08, 01:25:05,VALID,1000.41,VALID,0,VALID,97.0165,VALID,0,VALID,24.6964,VALID,358,VALID,0,
2010-05-08, 01:26:05,VALID,1000.42,VALID,0,VALID,97.0317,VALID,0,VALID,24.6574,VALID,358,VALID,0,
2010-05-08, 01:27:05,VALID,1000.4,VALID,0,VALID,97.0394,VALID,0,VALID,24.5777,VALID,358,VALID,0,
2010-05-08, 01:28:05,VALID,1000.4,VALID,0,VALID,97.0775,VALID,0,VALID,24.5601,VALID,358,VALID,0,
2010-05-08, 01:29:05,VALID,1000.36,VALID,0,VALID,97.047,VALID,0.100563,VALID,24.5193,VALID,358,VALID,0,
2010-05-08, 01:30:05,VALID,1000.34,VALID,0,VALID,97.0394,VALID,0,VALID,24.4804,VALID,358,VALID,0,
2010-05-08, 01:31:05,VALID,1000.37,VALID,0,VALID,97.0241,VALID,0,VALID,24.5017,VALID,358,VALID,0.650391,
2010-05-08, 01:32:05,VALID,1000.3,VALID,0,VALID,97.047,VALID,0,VALID,24.4822,VALID,358,VALID,0.54375,
2010-05-08, 01:33:05,VALID,1000.31,VALID,0,VALID,97.0165,VALID,0,VALID,24.4414,VALID,358,VALID,0.499609,
2010-05-08, 01:34:05,VALID,1000.31,VALID,0,VALID,97.0088,VALID,0,VALID,24.4414,VALID,352,VALID,0.537891,
2010-05-08, 01:35:05,VALID,1000.29,VALID,0,VALID,97.0088,VALID,0,VALID,24.4414,VALID,353,VALID,0.454688,
2010-05-08, 01:36:05,VALID,1000.28,VALID,0,VALID,97.0241,VALID,0.100563,VALID,24.422,VALID,353,VALID,0.390234,
2010-05-08, 01:37:05,VALID,1000.26,VALID,0,VALID,97.047,VALID,0,VALID,24.4238,VALID,353,VALID,0.400391,
2010-05-08, 01:38:05,VALID,1000.3,VALID,0,VALID,97.0165,VALID,0,VALID,24.4433,VALID,353,VALID,0.341797,
2010-05-08, 01:39:05,VALID,1000.27,VALID,0,VALID,97.0317,VALID,0,VALID,24.4433,VALID,353,VALID,0.333984,
2010-05-08, 01:40:05,VALID,1000.29,VALID,0,VALID,97.0241,VALID,0,VALID,24.4433,VALID,353,VALID,0.376953,
2010-05-08, 01:41:05,VALID,1000.24,VALID,0,VALID,97.0165,VALID,0,VALID,24.4238,VALID,353,VALID,0.276172,
2010-05-08, 01:42:05,VALID,1000.27,VALID,0,VALID,97.0165,VALID,0,VALID,24.4646,VALID,353,VALID,0.480078,
2010-05-08, 01:43:05,VALID,1000.23,VALID,0,VALID,97.0165,VALID,0,VALID,24.4822,VALID,353,VALID,0.356641,
2010-05-08, 01:44:04,VALID,1000.21,VALID,0,VALID,97.0241,VALID,0,VALID,24.4628,VALID,353,VALID,0.340625,
2010-05-08, 01:45:04,VALID,1000.2,VALID,0,VALID,97.0165,VALID,0,VALID,24.4628,VALID,353,VALID,0.141016,
2010-05-08, 01:46:04,VALID,1000.18,VALID,0,VALID,97.0088,VALID,0,VALID,24.4841,VALID,353,VALID,0.257031,
2010-05-08, 01:47:04,VALID,1000.15,VALID,0,VALID,97.0165,VALID,0,VALID,24.4628,VALID,353,VALID,0.229687,
2010-05-08, 01:48:04,VALID,1000.16,VALID,0,VALID,97.0241,VALID,0,VALID,24.4433,VALID,353,VALID,0.133984,
2010-05-08, 01:49:04,VALID,1000.17,VALID,0,VALID,97.0317,VALID,0,VALID,24.4433,VALID,353,VALID,0.233594,
2010-05-08, 01:50:04,VALID,1000.14,VALID,0,VALID,97.0317,VALID,0,VALID,24.4238,VALID,353,VALID,0.2625,
2010-05-08, 01:51:04,VALID,1000.13,VALID,0,VALID,97.0546,VALID,0,VALID,24.4238,VALID,353,VALID,0.380859,
2010-05-08, 01:52:04,VALID,1000.15,VALID,0,VALID,97.0546,VALID,0,VALID,24.4238,VALID,353,VALID,0.357031,
2010-05-08, 01:53:04,VALID,1000.13,VALID,0,VALID,97.047,VALID,0,VALID,24.4043,VALID,353,VALID,0.468359,
2010-05-08, 01:54:04,VALID,1000.11,VALID,0,VALID,97.0317,VALID,0,VALID,24.3636,VALID,353,VALID,0.466797,
2010-05-08, 01:55:04,VALID,1000.13,VALID,0,VALID,97.0546,VALID,0,VALID,24.3849,VALID,353,VALID,0.499609,
2010-05-08, 01:56:04,VALID,1000.17,VALID,0,VALID,97.0622,VALID,0,VALID,24.3654,VALID,353,VALID,0.317578,
2010-05-08, 01:57:04,VALID,1000.14,VALID,0,VALID,97.0546,VALID,0,VALID,24.3654,VALID,353,VALID,0.2625,
2010-05-08, 01:58:04,VALID,1000.14,VALID,0,VALID,97.0546,VALID,0,VALID,24.3654,VALID,353,VALID,0.373437,
2010-05-08, 01:59:04,VALID,1000.16,VALID,0,VALID,97.0546,VALID,0,VALID,24.3459,VALID,353,VALID,0.120703,
2010-05-08, 02:00:04,VALID,1000.14,VALID,0,VALID,97.0622,VALID,0,VALID,24.3459,VALID,353,VALID,0,
2010-05-08, 02:01:04,VALID,1000.2,VALID,0,VALID,97.0394,VALID,0,VALID,24.3459,VALID,353,VALID,0,
2010-05-08, 02:02:04,VALID,1000.18,VALID,0,VALID,97.047,VALID,0,VALID,24.3246,VALID,353,VALID,0,
2010-05-08, 02:03:04,VALID,1000.18,VALID,0,VALID,97.047,VALID,0,VALID,24.3246,VALID,353,VALID,0,
2010-05-08, 02:04:04,VALID,1000.18,VALID,0,VALID,97.0317,VALID,0,VALID,24.3636,VALID,353,VALID,0.257031,
2010-05-08, 02:05:04,VALID,1000.16,VALID,0,VALID,97.0317,VALID,0,VALID,24.4238,VALID,13,VALID,0.446875,
2010-05-08, 02:06:04,VALID,1000.14,VALID,0,VALID,97.0241,VALID,0,VALID,24.4025,VALID,53,VALID,0.128516,
2010-05-08, 02:07:04,VALID,1000.13,VALID,0,VALID,97.0165,VALID,0,VALID,24.4822,VALID,43,VALID,0.403125,
2010-05-08, 02:08:04,VALID,1000.11,VALID,0,VALID,97.0165,VALID,0,VALID,24.4822,VALID,43,VALID,0.358594,
2010-05-08, 02:09:04,VALID,1000.11,VALID,0,VALID,97.0546,VALID,0,VALID,24.5035,VALID,43,VALID,0.25625,
2010-05-08, 02:10:04,VALID,1000.08,VALID,0,VALID,97.0241,VALID,0,VALID,24.4822,VALID,42,VALID,0.446875,
2010-05-08, 02:11:04,VALID,1000.08,VALID,0,VALID,97.0241,VALID,0,VALID,24.5017,VALID,41,VALID,0.25,
2010-05-08, 02:12:04,VALID,1000.03,VALID,0,VALID,97.0165,VALID,0,VALID,24.5193,VALID,41,VALID,0.442578,
2010-05-08, 02:13:04,VALID,1000.04,VALID,0,VALID,97.0012,VALID,0,VALID,24.5796,VALID,14,VALID,0.336719,
2010-05-08, 02:14:04,VALID,1000.04,VALID,0,VALID,97.0088,VALID,0,VALID,24.599,VALID,14,VALID,0.448828,
2010-05-08, 02:15:04,VALID,1000.04,VALID,0,VALID,97.0241,VALID,0,VALID,24.6185,VALID,9,VALID,0.463672,
2010-05-08, 02:16:04,VALID,1000.03,VALID,0,VALID,97.0088,VALID,0,VALID,24.5972,VALID,3,VALID,0.491016,
2010-05-08, 02:17:04,VALID,1000.04,VALID,0,VALID,97.0088,VALID,0,VALID,24.638,VALID,360,VALID,0.558984,
2010-05-08, 02:18:04,VALID,1000.02,VALID,0,VALID,96.986,VALID,0,VALID,24.6574,VALID,356,VALID,0.576172,
2010-05-08, 02:19:04,VALID,1000.02,VALID,0,VALID,97.0165,VALID,0,VALID,24.6769,VALID,353,VALID,0.459375,
2010-05-08, 02:20:04,VALID,1000.01,VALID,0,VALID,97.0165,VALID,0,VALID,24.6769,VALID,353,VALID,0.345313,
2010-05-08, 02:21:04,VALID,1000.02,VALID,0,VALID,97.0394,VALID,0,VALID,24.6574,VALID,353,VALID,0.487109,
2010-05-08, 02:22:04,VALID,1000.01,VALID,0,VALID,97.0394,VALID,0,VALID,24.6361,VALID,353,VALID,0.223047,
2010-05-08, 02:23:04,VALID,1000.02,VALID,0,VALID,97.0546,VALID,0,VALID,24.638,VALID,353,VALID,0,
2010-05-08, 02:24:04,VALID,1000.03,VALID,0,VALID,97.0394,VALID,0,VALID,24.638,VALID,353,VALID,0.123047,
2010-05-08, 02:25:04,VALID,1000.02,VALID,0,VALID,97.0394,VALID,0,VALID,24.638,VALID,353,VALID,0.321875,
2010-05-08, 02:26:04,VALID,1000.04,VALID,0,VALID,97.047,VALID,0,VALID,24.6166,VALID,353,VALID,0.363672,
2010-05-08, 02:27:04,VALID,1000.05,VALID,0,VALID,97.0622,VALID,0,VALID,24.599,VALID,353,VALID,0.230078,
2010-05-08, 02:28:04,VALID,1000.06,VALID,0,VALID,97.0699,VALID,0,VALID,24.5796,VALID,353,VALID,0.3,
2010-05-08, 02:29:04,VALID,1000.04,VALID,0,VALID,97.0775,VALID,0,VALID,24.5601,VALID,353,VALID,0.252734,
2010-05-08, 02:30:04,VALID,1000.08,VALID,0,VALID,97.0775,VALID,0,VALID,24.5406,VALID,353,VALID,0.194141,
2010-05-08, 02:31:04,VALID,1000.06,VALID,0,VALID,97.0851,VALID,0,VALID,24.5212,VALID,353,VALID,0.319922,
2010-05-08, 02:32:04,VALID,1000.06,VALID,0,VALID,97.0851,VALID,0,VALID,24.5017,VALID,353,VALID,0.289453,
2010-05-08, 02:33:04,VALID,1000.06,VALID,0,VALID,97.0775,VALID,0,VALID,24.5017,VALID,353,VALID,0.423828,
2010-05-08, 02:34:04,VALID,1000.04,VALID,0,VALID,97.0851,VALID,0,VALID,24.4804,VALID,353,VALID,0.469922,
2010-05-08, 02:35:04,VALID,1000.01,VALID,0,VALID,97.0775,VALID,0,VALID,24.4822,VALID,353,VALID,0.459375,
2010-05-08, 02:36:04,VALID,999.986,VALID,0,VALID,97.0546,VALID,0,VALID,24.4822,VALID,353,VALID,0.585547,
2010-05-08, 02:37:04,VALID,999.985,VALID,0,VALID,97.0775,VALID,0,VALID,24.4628,VALID,353,VALID,0.626562,
2010-05-08, 02:38:04,VALID,999.976,VALID,0,VALID,97.0699,VALID,0,VALID,24.4433,VALID,353,VALID,0.582422,
2010-05-08, 02:39:04,VALID,999.975,VALID,0,VALID,97.0622,VALID,0,VALID,24.422,VALID,353,VALID,0.562109,
2010-05-08, 02:40:04,VALID,999.965,VALID,0,VALID,97.0546,VALID,0,VALID,24.4628,VALID,353,VALID,0.478125,
2010-05-08, 02:41:04,VALID,999.93,VALID,0,VALID,97.0546,VALID,0,VALID,24.4451,VALID,353,VALID,0.603125,
2010-05-08, 02:42:04,VALID,999.938,VALID,0,VALID,97.0394,VALID,0,VALID,24.4238,VALID,353,VALID,0.303906,
2010-05-08, 02:43:04,VALID,999.905,VALID,0,VALID,97.047,VALID,0,VALID,24.4238,VALID,353,VALID,0.512891,
2010-05-08, 02:44:04,VALID,999.896,VALID,0,VALID,97.047,VALID,0,VALID,24.4238,VALID,353,VALID,0.146875,
2010-05-08, 02:45:04,VALID,999.88,VALID,0,VALID,97.0165,VALID,0.100563,VALID,24.4628,VALID,353,VALID,0.389062,
2010-05-08, 02:46:04,VALID,999.897,VALID,0,VALID,97.0317,VALID,0,VALID,24.4609,VALID,353,VALID,0.459766,
2010-05-08, 02:47:04,VALID,999.877,VALID,0,VALID,97.0012,VALID,0,VALID,24.5212,VALID,353,VALID,0.630859,
2010-05-08, 02:48:04,VALID,999.871,VALID,0,VALID,96.9936,VALID,0,VALID,24.5796,VALID,353,VALID,0.648828,
2010-05-08, 02:49:04,VALID,999.892,VALID,0,VALID,96.9249,VALID,0,VALID,24.7353,VALID,17,VALID,1.01563,
2010-05-08, 02:50:04,VALID,999.919,VALID,0,VALID,96.9173,VALID,0,VALID,24.7937,VALID,15,VALID,0.728516,
2010-05-08, 02:51:04,VALID,999.888,VALID,0,VALID,96.902,VALID,0,VALID,24.9106,VALID,28,VALID,0.883984,
2010-05-08, 02:52:04,VALID,999.911,VALID,0,VALID,96.9097,VALID,0,VALID,24.9885,VALID,30,VALID,0.8,
2010-05-08, 02:53:04,VALID,999.947,VALID,0,VALID,96.8944,VALID,0,VALID,25.0663,VALID,1,VALID,0.634375,
2010-05-08, 02:54:04,VALID,999.969,VALID,0,VALID,96.9478,VALID,0.100563,VALID,25.0469,VALID,1,VALID,0.508984,
2010-05-08, 02:55:04,VALID,999.948,VALID,0,VALID,96.9783,VALID,0,VALID,25.0255,VALID,1,VALID,0.174219,
2010-05-08, 02:56:04,VALID,999.949,VALID,0,VALID,96.9707,VALID,0.100563,VALID,25.0663,VALID,1,VALID,0.260547,
2010-05-08, 02:57:04,VALID,999.949,VALID,0,VALID,96.9554,VALID,0,VALID,25.1034,VALID,48,VALID,0.449219,
2010-05-08, 02:58:04,VALID,999.964,VALID,0,VALID,96.9554,VALID,0,VALID,25.1423,VALID,51,VALID,0.288672,
2010-05-08, 02:59:04,VALID,999.952,VALID,0,VALID,96.9707,VALID,0,VALID,25.1637,VALID,51,VALID,0.35,
2010-05-08, 03:00:04,VALID,999.961,VALID,0,VALID,96.986,VALID,0,VALID,25.1813,VALID,51,VALID,0.212109,
2010-05-08, 03:01:04,VALID,999.98,VALID,0,VALID,97.0088,VALID,0,VALID,25.1637,VALID,51,VALID,0.390625,
2010-05-08, 03:02:04,VALID,999.995,VALID,0,VALID,97.0241,VALID,0,VALID,25.1637,VALID,51,VALID,0.0164062,
2010-05-08, 03:03:04,VALID,1000.01,VALID,0,VALID,97.0317,VALID,0,VALID,25.1442,VALID,51,VALID,0.09375,
2010-05-08, 03:04:04,VALID,1000.05,VALID,0,VALID,97.047,VALID,0,VALID,25.0839,VALID,51,VALID,0.198437,
2010-05-08, 03:05:04,VALID,1000.08,VALID,0,VALID,97.0088,VALID,0,VALID,25.0663,VALID,51,VALID,0.00273437,
2010-05-08, 03:06:04,VALID,1000.07,VALID,0,VALID,96.986,VALID,0,VALID,25.0663,VALID,313,VALID,0.485156,
2010-05-08, 03:07:04,VALID,1000.08,VALID,0,VALID,96.9631,VALID,0,VALID,25.006,VALID,310,VALID,0.312109,
2010-05-08, 03:08:04,VALID,1000.12,VALID,0,VALID,96.9478,VALID,0,VALID,25.0079,VALID,310,VALID,0,
2010-05-08, 03:09:04,VALID,1000.12,VALID,0,VALID,96.9249,VALID,0,VALID,24.9885,VALID,310,VALID,0,
2010-05-08, 03:10:04,VALID,1000.11,VALID,0,VALID,96.902,VALID,0.100563,VALID,24.9282,VALID,310,VALID,0.0175781,
2010-05-08, 03:11:04,VALID,1000.1,VALID,0,VALID,96.8715,VALID,0,VALID,24.8911,VALID,310,VALID,0.0902344,
2010-05-08, 03:12:04,VALID,1000.1,VALID,0,VALID,96.7876,VALID,0,VALID,24.8113,VALID,310,VALID,0.345703,
2010-05-08, 03:13:04,VALID,1000.07,VALID,0,VALID,96.7189,VALID,0,VALID,24.7529,VALID,310,VALID,0.167969,
2010-05-08, 03:14:04,VALID,1000.03,VALID,0,VALID,96.5969,VALID,0,VALID,24.7159,VALID,310,VALID,0.294531,
2010-05-08, 03:15:04,VALID,1000.01,VALID,0,VALID,96.4519,VALID,0,VALID,24.6964,VALID,326,VALID,0.447656,
2010-05-08, 03:16:04,VALID,999.975,VALID,0,VALID,96.2994,VALID,0,VALID,24.6983,VALID,332,VALID,0.603906,
2010-05-08, 03:17:04,VALID,999.951,VALID,0,VALID,96.0781,VALID,0,VALID,24.6769,VALID,333,VALID,0.516797,
2010-05-08, 03:18:04,VALID,999.92,VALID,0,VALID,95.9255,VALID,0,VALID,24.6556,VALID,333,VALID,0.4875,
2010-05-08, 03:19:04,VALID,999.892,VALID,0,VALID,95.8187,VALID,0,VALID,24.6769,VALID,339,VALID,0.326953,
2010-05-08, 03:20:04,VALID,999.901,VALID,0,VALID,95.7653,VALID,0,VALID,24.6574,VALID,10,VALID,0.373828,
2010-05-08, 03:21:04,VALID,999.906,VALID,0,VALID,95.7959,VALID,0,VALID,24.6574,VALID,10,VALID,0.308984,
2010-05-08, 03:22:04,VALID,999.887,VALID,0,VALID,95.8416,VALID,0,VALID,24.638,VALID,10,VALID,0.169531,
2010-05-08, 03:23:04,VALID,999.915,VALID,0,VALID,95.8798,VALID,0,VALID,24.6185,VALID,10,VALID,0.0183594,
2010-05-08, 03:24:04,VALID,999.92,VALID,0,VALID,95.9484,VALID,0,VALID,24.6185,VALID,10,VALID,0.159375,
2010-05-08, 03:25:04,VALID,999.965,VALID,0,VALID,96.0018,VALID,0,VALID,24.5972,VALID,10,VALID,0.0824219,
2010-05-08, 03:26:04,VALID,999.966,VALID,0,VALID,96.0781,VALID,0.100563,VALID,24.5972,VALID,10,VALID,0,
2010-05-08, 03:27:04,VALID,999.967,VALID,0,VALID,96.1697,VALID,0,VALID,24.6574,VALID,10,VALID,0.341406,
2010-05-08, 03:28:04,VALID,999.966,VALID,0,VALID,96.2765,VALID,0,VALID,24.6556,VALID,10,VALID,0.289844,
2010-05-08, 03:29:04,VALID,1000,VALID,0,VALID,96.3375,VALID,0,VALID,24.6964,VALID,10,VALID,0.202344,
2010-05-08, 03:30:04,VALID,999.989,VALID,0,VALID,96.4138,VALID,0,VALID,24.714,VALID,10,VALID,0.104687,
2010-05-08, 03:31:04,VALID,999.983,VALID,0,VALID,96.4519,VALID,0,VALID,24.7335,VALID,10,VALID,0.191797,
2010-05-08, 03:32:04,VALID,1000.02,VALID,0,VALID,96.5053,VALID,0,VALID,24.7548,VALID,10,VALID,0.266406,
2010-05-08, 03:33:04,VALID,1000.01,VALID,0,VALID,96.5206,VALID,0,VALID,24.7529,VALID,10,VALID,0.424609,
2010-05-08, 03:34:04,VALID,999.981,VALID,0,VALID,96.5511,VALID,0,VALID,24.7743,VALID,10,VALID,0.507031,
2010-05-08, 03:35:04,VALID,999.984,VALID,0,VALID,96.5587,VALID,0,VALID,24.7937,VALID,10,VALID,0.388281,
2010-05-08, 03:36:04,VALID,999.965,VALID,0,VALID,96.5664,VALID,0.100563,VALID,24.8911,VALID,23,VALID,0.678906,
2010-05-08, 03:37:04,VALID,999.97,VALID,0,VALID,96.6655,VALID,0,VALID,24.9106,VALID,21,VALID,0.588672,
2010-05-08, 03:38:04,VALID,999.965,VALID,0,VALID,96.6884,VALID,0.100563,VALID,24.8911,VALID,25,VALID,0.573828,
2010-05-08, 03:39:04,VALID,999.992,VALID,0,VALID,96.6884,VALID,0,VALID,24.8503,VALID,20,VALID,0.660937,
2010-05-08, 03:40:04,VALID,1000,VALID,0,VALID,96.6579,VALID,0,VALID,24.8697,VALID,21,VALID,0.652344,
2010-05-08, 03:41:04,VALID,999.99,VALID,0,VALID,96.6274,VALID,0.100563,VALID,24.9866,VALID,18,VALID,0.961719,
2010-05-08, 03:42:04,VALID,1000.01,VALID,0,VALID,96.6579,VALID,0,VALID,25.006,VALID,35,VALID,1.04766,
2010-05-08, 03:43:04,VALID,999.997,VALID,0,VALID,96.6503,VALID,0,VALID,25.0839,VALID,3,VALID,0.908203,
2010-05-08, 03:44:04,VALID,999.986,VALID,0,VALID,96.6961,VALID,0,VALID,25.1618,VALID,1,VALID,0.746875,
2010-05-08, 03:45:04,VALID,999.994,VALID,0,VALID,96.6808,VALID,0,VALID,25.2806,VALID,16,VALID,1.07734,